{"data":{"norad_id":55998,"epoch":"2026-05-24T22:37:25.854240Z","epoch_age_seconds":80161,"freshness":"FRESH","line1":"1 55998U 23042N   26144.94266035  .00000148  00000+0  14909-4 0  9998","line2":"2 55998  43.0040 348.7725 0001362 267.2812  92.7883 15.27577048174538","mean_motion":15.27577048,"eccentricity":0.0001362,"inclination_deg":43.004,"raan_deg":348.7725,"arg_perigee_deg":267.2812,"mean_anomaly_deg":92.7883,"bstar":1.4909e-5,"rev_number":17453,"period_min":94.266930881512,"perigee_km":482.12344065366,"apogee_km":483.99243015407,"semimajor_km":6861.1949354039,"source":"CELESTRAK","updated_at":"2026-05-25T13:38:17.923696Z"}}